COSMOS 2251 DEB

Satellite information

Favourite Embed

Satellite Type and Status

DEBRISIN ORBIT

Key statistics

Satellite COSMOS 2251 DEB at a glance.

Uptime

11763

Days in orbit

Revolutions

≈ 14.3

Per day

Orbit

LEO

Low Earth Orbit

Inclination

74.1

Latest

Satellite identification and parameters

Extended collection of information and parameters for COSMOS 2251 DEB.

Object identification

Identified? True

Debris? True

Object name: COSMOS 2251 DEB

International designator: 1993-036BKX

Object number (NORAD): 37331

Object ID (CCSDS): 37331

Country: COMMONWEALTH OF INDEPENDENT STATES (CIS)

Current information (Y/N): Y

RCS size: SMALL

Orbital parameters

Period: 100.381 minutes

Inclination: 74.072 deg

SMA: 7154.757 km

Apoapsis: 818.8 km

Periapsis: 734.444 km

RAAN: 263.9606 deg

Eccentricy: 0.00589513

Argument of periapsis: 306.1545 deg

Mean anomaly: 53.4161 deg

Mean motion: 14.34532559 rev/day

Mean motion (dot): 0.00001134 rev/day2

B* drag term: 0.00040317328 1/REarth

Two-line elements (TLE)

Creation date: Aug. 27, 2025, 8:01 p.m.

Reference frame: TEME

Reference center: EARTH

Epoch: Aug. 27, 2025, 11:07 a.m. UTC

TLE line 0: 0 COSMOS 2251 DEB

TLE line 1: 1 37331U 93036BKX 25239.46365665 .00001134 00000-0 40317-3 0 9997

TLE line 2: 2 37331 74.0720 263.9606 0058951 306.1545 53.4161 14.34532559832210

Live tracking on map

Real-time ground track for satellite COSMOS 2251 DEB.

In-orbit conjunctions

A list of the most updated potential collisions computed for object COSMOS 2251 DEB.

Target Orbit TCA Probability of collision Miss distance Type
CZ-6A DEB LEO 2025-03-03 00:09:48 0.0001032469 986.0 (m) DEBRIS
FENGYUN 1C DEB SSO 2025-01-31 22:02:09 0.0001890015 103.0 (m) DEBRIS

Associated space launch

Military communications satellite. Destroyed in a collision with Iridium 33.

COSMOS 2251 DEB was lifted into orbit during the mission ‘Kosmos-3M | Strela-2M 51’, on board a Kosmos-3M space rocket.

The launch took place on June 16, 1993, 4:17 a.m. from 132/1 (132L).

For more information about the launch, click the button.

Launch to space Kosmos-3M | Strela-2M 51
Kosmos-3M | Strela-2M 51

Agency: N/A

Status: Launch Successful

Launch date: June 16, 1993, 4:17 a.m. UTC

Rocket: Kosmos-3M

Launch pad: 132/1 (132L)

Location: Plesetsk Cosmodrome, Russian Federation

...

Latest news about this satellite

There are no fresh news available about this satellite. Check back as we update our databases every day.


Newsletter sign-up

Weekly statistics, charts and insights to help you stay on top of the space industry.